Location: DARK SKY Beskydy - Park tmavé oblohy, www.darkskybeskydy.cz
(49.4926°N, 18.5016°E)
Time: 18:14:59
(UTC+02:00)

PCSat - Pass Details

Date: 04 August 2024
Orbit: 781 x 793 km, 67.1° (Epoch: 08 September)

Event Time Altitude Azimuth Distance (km) Brightness Sun altitude
Rises 00:46:15 0° 319° (NW) 3,298 13.6 -23.3°
Reaches altitude 10° 00:49:52 10° 344° (NNW) 2,369 13.0 -23.3°
Maximum altitude 00:52:48 15° 17° (NNE) 2,067 12.6 -23.3°
Drops below altitude 10° 00:55:44 10° 50° (NE) 2,367 12.5 -23.3°
Sets 00:59:21 0° 74° (ENE) 3,295 13.0 -23.3°
